#timestamp,LO_Frequency,Hit,StdDev 
1588478415.0,286047004.4,Y
1588478415.9,286047004.4,P
1588478435.8,286047000.7,N
1588478455.6,286046999.7,N
1588478475.4,286047000.8,N
1588478495.3,286046998.6,N
1588478515.1,286046998.2,N
1588478535.9,286047000.2,N
1588478555.7,286047000.0,N
1588478575.5,286047000.5,N
1588478595.4,286046999.8,N
1588478615.2,286047000.6,N
1588478635.0,286047000.0,N
1588478635.9,286047000.0,N
1588478655.8,286046998.8,N
1588478675.6,286047000.8,N
1588478695.5,286047001.2,N
1588478715.3,286047001.0,N
1588478735.1,286047000.6,N
1588478755.9,286047001.0,N
1588478775.7,286047000.3,N
1588478795.5,286047002.5,N
1588478815.4,286046999.9,N
1588478835.2,286047001.2,N
1588478855.1,286046998.3,N
1588478856.0,286046998.3,N
1588478875.8,286047001.1,N
1588478895.6,286047000.8,N
1588478915.5,286047000.4,N
1588478935.3,286046998.7,N
1588478955.1,286046999.5,N
1588478975.9,286046999.1,N
1588478995.7,286046998.6,N
1588479015.6,286046998.6,N
1588479035.4,286046998.6,N
1588479055.2,286047000.0,N
1588479075.1,286047000.1,N
1588479076.0,286047000.1,N
1588479095.8,286047002.5,N
1588479115.6,286047000.5,N
1588479135.5,286047001.0,N
1588479155.3,286046999.4,N
1588479175.2,286047000.4,N
1588479195.9,286047001.0,N
1588479215.7,286047001.1,N
1588479235.6,286046999.9,N
1588479255.4,286046999.9,N
1588479275.2,286046999.8,N
1588479295.1,286047001.9,N
1588479296.0,286047001.9,N
1588479315.8,286047000.2,N
1588479335.7,286047002.8,N
1588479355.5,286046999.8,N
1588479375.3,286047000.9,N
1588479395.2,286047002.6,N
1588479415.0,286047003.9,Y
1588479415.9,286047003.9,P
1588479435.8,286047004.3,N
1588479455.6,286047002.7,N
1588479475.4,286047002.2,N
1588479495.3,286047002.0,N
1588479515.1,286047001.6,N
1588479535.8,286047002.6,N
1588479555.7,286047002.4,N
1588479575.5,286047001.9,N
1588479595.4,286047002.3,N
1588479615.2,286047000.3,N
1588479635.0,286047000.6,N
1588479635.9,286047000.6,N
1588479655.8,286047000.3,N
1588479675.6,286046999.9,N
1588479695.4,286046999.5,N
1588479715.3,286046998.2,N
1588479735.1,286046998.3,N
1588479755.9,286046998.1,N
1588479775.7,286046998.3,N
1588479795.5,286046998.2,N
1588479815.4,286046999.2,N
1588479835.2,286046996.9,N
1588479855.0,286046997.6,N
1588479855.9,286046997.6,N
1588479875.8,286046999.5,N
1588479895.6,286046996.7,N
1588479915.5,286046996.8,N
1588479935.3,286046999.2,N
1588479955.1,286046997.7,N
1588479975.9,286046995.0,N
1588479995.7,286046995.0,N
1588480015.5,286046997.0,N
1588480035.4,286046998.3,N
1588480055.2,286047000.3,N
1588480075.1,286047001.2,N
1588480076.0,286047001.2,N
1588480095.8,286046998.8,N
1588480115.6,286046998.7,N
1588480135.5,286046999.6,N
1588480155.3,286047001.1,N
1588480175.2,286047001.0,N
1588480195.9,286047001.0,N
1588480215.7,286046998.7,N
1588480235.6,286046999.2,N
1588480255.4,286046998.3,N
1588480275.2,286046998.8,N
1588480295.1,286046999.5,N
1588480296.0,286046999.5,N
1588480315.8,286046998.5,N
1588480335.7,286046998.8,N
1588480355.5,286046998.7,N
1588480375.3,286046996.6,N
1588480395.2,286046998.9,N
1588480415.9,286046997.0,N
1588480435.7,286046998.7,N
1588480455.6,286046996.6,N
1588480475.4,286046998.5,N
1588480495.3,286046996.9,N
1588480515.1,286046999.2,N
1588480516.0,286046999.2,N
1588480535.8,286046998.4,N
1588480555.7,286046998.2,N
1588480575.5,286046999.8,N
1588480595.3,286047001.2,N
1588480615.2,286046999.5,N
1588480635.0,286047001.0,N
1588480635.9,286047001.0,N
1588480655.8,286047000.6,N
1588480675.6,286046999.1,N
1588480695.4,286046996.8,N
1588480715.3,286046997.7,N
1588480735.1,286046997.7,N
1588480755.8,286046995.4,Y
1588480775.7,286046997.0,P
1588480795.5,286046996.8,P
1588480815.4,286047000.6,N
1588480835.2,286047001.1,N
1588480855.0,286046998.2,N
1588480855.9,286046998.2,N
1588480875.8,286046998.3,N
1588480895.6,286046998.6,N
1588480915.4,286046999.6,N
1588480935.3,286046996.8,N
1588480955.1,286046997.4,N
1588480975.9,286046995.7,Y
1588480995.7,286046999.0,P
1588481015.5,286046998.8,P
1588481035.4,286046998.4,P
1588481055.2,286046999.1,Y
1588481075.0,286046998.4,P
1588481076.0,286046998.4,P
1588481095.8,286047000.7,P
1588481115.6,286047001.2,N
1588481135.5,286047000.2,N
1588481155.3,286047000.1,N
1588481175.1,286046999.9,N
1588481195.9,286047002.4,N
1588481215.7,286047001.8,N
1588481235.5,286047002.9,N
1588481255.4,286047002.9,N
1588481275.2,286047004.3,N
1588481295.1,286047004.4,N
1588481296.0,286047004.4,N
1588481315.8,286047000.7,N
1588481335.6,286047002.7,N
1588481355.5,286047000.4,N
1588481375.3,286047002.1,N
1588481395.1,286047002.5,N
1588481415.9,286047004.0,N
1588481435.7,286047001.6,N
1588481455.6,286047001.4,N
1588481475.4,286047002.4,N
1588481495.2,286046999.8,N
1588481515.1,286047000.0,N
1588481516.0,286047000.0,N
1588481535.8,286047001.1,N
1588481555.6,286047001.2,N
1588481575.5,286047002.8,N
1588481595.3,286047002.1,N
1588481615.2,286047001.5,N
1588481635.9,286047003.2,N
1588481655.7,286047004.1,N
1588481675.6,286047004.0,N
1588481695.4,286047005.4,Y
1588481715.2,286047002.5,P
1588481735.1,286046999.8,N
1588481736.0,286046999.8,N
1588481755.8,286047004.4,Y
1588481775.7,286047002.5,P
1588481795.5,286047004.3,P
1588481815.3,286047004.1,P
1588481835.2,286047003.2,N
1588481855.0,286047003.6,Y
1588481855.9,286047003.6,P
1588481875.8,286047000.0,N
1588481895.6,286046999.8,N
1588481915.4,286047000.3,N
1588481935.3,286047000.1,N
1588481955.1,286047000.0,N
1588481975.8,286047000.0,N
1588481995.7,286046999.7,N
